AEHF-1 (USA 214)

Last updated on Mon Nov 03 2025 00:02:56 GMT+0000 (Coordinated Universal Time)

1 36868U 10039A 25306.04451102 .00000165 00000+0 00000+0 0 9997 2 36868 7.6553 70.9114 0004649 148.7577 227.8802 1.00273113 51387
UTC large
Height (km)
Speed (km/s)
/
Latitude / Longitude
Inclination (degrees)
Orbital Period (minutes)
Azimuth
Elevation
Range (km)
Doppler Factor

Next 0 passes for location: London (51.5072 / 0.1276)

Sorry there are no passes over London.